TimeADT,TemperatureF,Dew PointF,Humidity,Sea Level PressureIn,VisibilityMPH,Wind Direction,Wind SpeedMPH,Gust SpeedMPH,PrecipitationIn,Events,Conditions,WindDirDegrees,DateUTC
12:00 AM,58,54,82,30.03,,West,5.8,,,,,260,2012-10-03 03:00:00
12:00 AM,58.1,54.0,86,30.03,-9999.0,West,5.8,-,N/A,,Unknown,260,2012-10-03 03:00:00
1:00 AM,55.6,53.4,92,30.04,-9999.0,WSW,8.1,-,N/A,,Unknown,240,2012-10-03 04:00:00
2:00 AM,55.4,53.8,94,30.04,-9999.0,WSW,6.9,-,N/A,,Unknown,250,2012-10-03 05:00:00
3:00 AM,56,54,90,30.03,,WSW,8.1,,,,,250,2012-10-03 06:00:00
3:00 AM,55.6,54.0,94,30.03,-9999.0,WSW,8.1,-,N/A,,Unknown,250,2012-10-03 06:00:00
4:00 AM,55.2,54.1,96,30.04,-9999.0,WSW,6.9,-,N/A,,Unknown,250,2012-10-03 07:00:00
5:00 AM,57.0,55.4,94,30.04,-9999.0,West,5.8,-,N/A,,Unknown,260,2012-10-03 08:00:00
6:00 AM,58,56,90,30.05,,WNW,5.8,,,,,290,2012-10-03 09:00:00
6:00 AM,58.1,55.9,93,30.05,-9999.0,WNW,5.8,-,N/A,,Unknown,290,2012-10-03 09:00:00
7:00 AM,56.8,55.0,94,30.06,-9999.0,WNW,8.1,-,N/A,,Unknown,290,2012-10-03 10:00:00
8:00 AM,57.4,55.2,92,30.07,-9999.0,NW,10.4,-,N/A,,Unknown,310,2012-10-03 11:00:00
9:00 AM,61,56,80,30.08,,NW,11.5,,,,,320,2012-10-03 12:00:00
9:00 AM,60.8,56.3,85,30.08,-9999.0,NW,11.5,-,N/A,,Unknown,320,2012-10-03 12:00:00
10:00 AM,64.9,56.8,75,30.09,-9999.0,NNW,9.2,-,N/A,,Unknown,330,2012-10-03 13:00:00
11:00 AM,69.6,57.4,65,30.09,-9999.0,NW,5.8,-,N/A,,Unknown,320,2012-10-03 14:00:00
12:00 PM,67,56,59,30.09,,SSE,4.6,,,,,160,2012-10-03 15:00:00
12:00 PM,66.6,55.9,69,30.09,-9999.0,SSE,4.6,-,N/A,,Unknown,160,2012-10-03 15:00:00
1:00 PM,69.6,57.4,65,30.07,-9999.0,SSW,3.5,-,N/A,,Unknown,210,2012-10-03 16:00:00
2:00 PM,67.6,58.1,71,30.07,-9999.0,SSE,4.6,-,N/A,,Unknown,160,2012-10-03 17:00:00
3:00 PM,65,58,71,30.08,,SSW,6.9,,,,,200,2012-10-03 18:00:00
3:00 PM,64.9,57.7,77,30.08,-9999.0,SSW,6.9,-,N/A,,Unknown,200,2012-10-03 18:00:00
4:00 PM,72.3,58.3,61,30.07,-9999.0,WSW,4.6,-,N/A,,Unknown,240,2012-10-03 19:00:00
5:00 PM,74.8,56.1,52,30.08,-9999.0,WNW,6.9,-,N/A,,Unknown,290,2012-10-03 20:00:00
6:00 PM,71,54,44,30.09,,NW,6.9,,,,,310,2012-10-03 21:00:00
6:00 PM,70.9,53.6,54,30.09,-9999.0,NW,6.9,-,N/A,,Unknown,310,2012-10-03 21:00:00
7:00 PM,61.3,52.5,73,30.10,-9999.0,NW,5.8,-,N/A,,Unknown,310,2012-10-03 22:00:00
8:00 PM,60.6,52.3,74,30.12,-9999.0,NW,8.1,-,N/A,,Unknown,310,2012-10-03 23:00:00
9:00 PM,60,53,69,30.13,,NW,8.1,,,,,320,2012-10-04 00:00:00
9:00 PM,59.5,52.5,78,30.13,-9999.0,NW,8.1,-,N/A,,Unknown,320,2012-10-04 00:00:00
10:00 PM,58.1,52.0,80,30.14,-9999.0,NW,9.2,-,N/A,,Unknown,310,2012-10-04 01:00:00
11:00 PM,57.9,52.2,81,30.14,-9999.0,NW,9.2,-,N/A,,Unknown,320,2012-10-04 02:00:00